Weather in Skierniewice

Poland     51°57′12″N   20°08′43″E
temp.,
°C
wind,
m/s
gust,
m/s
humid.,
%
clouds,
%
prec.,
mm/h
press.,
hPa
HPBL,
m
21 april, wed
wed2123:00+9w227141 0.1 101224
02:00+7wsw338688 0.5 101249
05:00+6wsw358584 0.0 101179
08:00+10w48775 0.0 1011372
11:00+14w56595 0.1 10111021
14:00+16w67489 0.6 10102058
17:00+13w486196 0.4 1009544
20:00+12w366210 0.4 1010140
22 april, thu
thu2223:00+8wsw497171 0.0 1010158
02:00+7wnw5885100 0.2 1011295
05:00+5wnw5118795 0.4 1012803
08:00+4w71165100 0.4 1014943
11:00+7w8105355 0.0 10151624
14:00+9w8105093 0.0 10151983
17:00+8w9115498 0.1 10151766
20:00+5w6118782 1.0 1016716
23 april, fri
fri2323:00+4w6127850 0.1 1016491
02:00+2w613765 0.1 1017431
05:00+1w5118076 0.0 1018326
08:00+4w6106914 0.0 1018520
11:00+8w795117 0.1 10181703
14:00+6w91278100 0.9 10181131
17:00+5nw8127687 0.7 10181357
20:00+3nw410705 1.3 1020418
24 april, sat
sat2423:000w34805 0.0 102266
02:00−1w48830 0.0 1022161
05:00−1w511815 0.0 1022237
08:00+3w610645 0.0 1022447
11:00+8wnw71038100 0.0 10222911
14:00+8wnw7843100 0.1 10222060
17:00+7nnw575568 0.4 10211274
20:00+3nnw498223 0.7 1022328
25 april, sun
sun2523:00+1nnw34925 0.0 102370
02:00−1nw34891 0.0 102467
05:00−1wnw38845 0.0 1024198
08:00+3wnw47665 0.0 1025518
11:00+7wnw6847100 0.1 10242038
14:00+8wnw7104895 0.3 10232200
17:00+8nw8114783 0.1 10212182
20:00+4nw49625 0.2 1022197